Location: El Bakhil
(32.7726°N, 5.5387°W)
Time: 05:09:27
(UTC+00:00)

Envisat - Pass Details

Date: 04 December 2021
Orbit: 764 x 766 km, 98.2° (Epoch: 25 January)

Event Time Altitude Azimuth Distance (km) Brightness Sun altitude
Rises 05:34:52 0° 7° (N) 3,236 6.2 -19.4°
Reaches altitude 10° 05:37:12 10° 4° (N) 2,306 5.4 -18.9°
Maximum altitude 05:42:11 60° 286° (WNW) 875 2.9 -17.9°
Drops below altitude 10° 05:47:09 10° 207° (SSW) 2,292 5.4 -16.9°
Sets 05:49:28 0° 203° (SSW) 3,214 6.2 -16.4°
